User: anonymous
Location: Vancouver
(49.2500°N, 123.1330°W)
Time: 23:11:29
(UTC-07:00)
Language:

ERS-2 - Orbit

View from above orbital plane
View from above orbital plane
View from above satellite
View from above satellite

Ground track
Ground track

The orbit data is extracted from the following two-line orbital elements,

1 23560U 95021A   14241.19011973  .00003097  00000-0  19133-3 0   839
2 23560 098.5589 090.0801 0005279 147.8001 333.3093 15.10769526 20282
Epoch (UTC): 29 August 2014 04:33:46
Eccentricity: 0.0005279
inclination: 98.5589°
perigee height: 530 km
apogee height: 537 km
right ascension of ascending node: 90.0801°
argument of perigee: 147.8001°
revolutions per day: 15.10769526
mean anomaly at epoch: 333.3093°
orbit number at epoch: 2028

The dashed part of the orbit path shows where the satellite is in the earth's shadow,  

DLR